カタログに戻る

STARLINK-35411

運用中通信VLEO
NORAD 66560·PAYLOAD·🇺🇸 United States

打ち上げ Nov 21, 2025 から Cape Canaveral Space Force Station

Loading…

次のパス (今後24時間)

TLE

最新Source: CelesTrak SupGP

元期: Sep 14, 2026, 23:13 UTC

1 66560C 25268D   26257.96784722 -.00015392  00000+0 -55727-3 0  2570
2 66560  43.0042 358.1740 0001652 275.1588 198.2111 15.27598736    13

AllMySatでSTARLINK-35411をリアルタイム追跡

Download on the App Store